FENGYUN 1C DEB, 33633

Orbit data source: Space-Track

FENGYUN 1C DEB, 33633 is space debris in SSO originally from a launch on Mon, 10 May 1999 UTC launched from the Taiyaun Space Center, China (TSC). Fengyun 1C debris stems from the Chinese weather satellite Fengyun-1C, which was intentionally destroyed by a Chinese anti-satellite missile in 2007. This event dramatically increased the amount of space debris, with thousands of trackable fragments posing hazards to satellites and human spaceflight. The Fengyun 1C debris cloud has become a focal point in discussions about space sustainability and the need for international regulations to prevent the creation of new debris.

Loading next visibility...
Identifier
33633, 1999-025DDS
Orbit
SSO
Country
Flag of CNCN / PRC
Related business
Manufacturer
Unknown
Mission
Spacecraft
Bus & Motor
Unknown
Mass
Unknown
Launch date (UTC)
1999-05-10 (27 years ago)
Launch vehicle
Unknown
Launch site
Taiyaun Space Center, China (TSC)
Object type
Payload
Rocket body
Debris
Shape & HBR
Unknown shape, 0.1 m
Radar Cross Section
Small (<0.1 m²)

Expand to show TLE details & history
Last TLE update: 13 hours ago

TLE from 13 hours ago
0 FENGYUN 1C DEB
1 33633U 99025DDS 26254.84653292  .00002417  00000-0  10903-2 0  9990
2 33633  99.0613   0.6934 0081475  91.7257  37.9167 14.21377292945881
Epoch: 2026-09-11T20:19Z
TLE epoch observation values (Epoch: 2026-09-11T20:19:00.444Z)
Latitude
49.04131°
Longitude
-104.39247°
Altitude
782.293 km
Speed
7.491 km/s
True Right ascension
12h 44m 53s
True Declination
48° 52' 18"
Sunlit
Object was in daylight at epoch
Visualization orbit readout
Latitude
Unknown
Longitude
Unknown
Altitude
Unknown
Speed
Unknown
Apparent Right ascension
Unknown
Apparent Declination
Unknown
Sunlit
N/A
Visualization observer readout
Local Sidereal Time
02:13:18
Azimuth
Unknown
Elevation
Unknown
Doppler factor
Unknown
Orbital elements
Apogee altitude
876.502 km
Perigee altitude
759.243 km
Semi-major axis
7,196.009 km
Eccentricity
0.00815
Inclination
99.0613°
RAAN
0.6934°
Arg. of periapsis
91.7257°
True anomaly
38.49507°
Mean anomaly
37.9167°
Eccentric anomaly
38.20542°
Mean motion
3.55554 °/min
Orbital period
101.25 mins
BSTAR
0.0010903
Loading maneuver chart data...
Computing Atmospheric mass density...

Documentation

Showing up to 5 results
|